Other Public Products
Issued by NWS Charleston, SC

Home | Current Version | Previous Version | Text Only | Print | Product List | Glossary On
Versions: 1 2 3 4 5 6 7 8 9 10 11 12 13 14 15 16 17 18 19 20 21 22 23 24 25 26 27 28 29 30 31 32 33 34 35 36 37 38 39 40 41 42 43 44 45 46 47 48 49 50
278
FPUS82 KCHS 261727
OPUCHS

TEST...KCHS/KSAV Gateway Observations...TEST
National Weather Service Charleston SC
100 PM EDT FRI MAY 26 2017

NOTE: "fair" indicates few or no clouds below 12,000 feet with no
significant weather and/or obstructions to visibility.

SCZ050-WAZ558-NCZ071-TXZ119-213-PAZ071-DCZ001-FLZ074-172-MI076-
NYZ176-178-MAZ016-IL014-TNZ027-NJZ106-GAZ044-MD014-261800-

...Gateway Observations for Charleston International...

CITY           SKY/WX    TMP DP  RH WIND       PRES   REMARKS
Chas Airport   MOSUNNY   80  53  39 W8        29.99F
Seattle        SUNNY     64  51  62 CALM      29.97S
Charlotte      MOSUNNY   76  55  48 SW7       29.99S
Dallas DFW     MOSUNNY   91  72  53 SW22G30   29.76S HX  98
Dallas Love    MOSUNNY   89  71  55 SW14G25   29.78R HX  95
Philladelphia  MOSUNNY   74  55  51 W13G25    29.66S
Wash National  PTSUNNY   75  59  57 W20G29    29.76F
Baltimore      PTSUNNY   69  57  65 W24G30    29.73S
Miami          MOSUNNY   90  72  55 VRB3      30.05F HX  97
Detroit        CLOUDY    65  53  65 W10       29.86S
Newark         PTSUNNY   74  55  51 W20       29.59R
Laguardia      PTSUNNY   74  54  49 W18G24    29.57F
J F K          PTSUNNY   72  58  61 W16       29.59F
Boston Logan   CLOUDY    57  51  80 NW12      29.53R
Ft. Lauderdale MOSUNNY   86  70  58 NE10      30.05F HX  90
Chicago O`Hare CLOUDY    68  54  60 E14       29.81F
Chicago Midway CLOUDY    67  55  65 E14       29.81F
Houston Bush   PTSUNNY   87  71  58 S10       29.91F HX  93
Houston Hobby  PTSUNNY   87  73  62 S14       29.91R HX  94
Nashville      MOSUNNY   80  62  54 S10G18    29.97F
Atlanta        MOSUNNY   78  57  48 W14       30.06S

$$

GAZ044-118-TXZ119-213-NCZ071-DCZ001-MDZ014-506-PAZ021-071-NJZ106-
NYZ176-178-MAZ106-OHZ011-021-055-MIZ076-KYZ091-ILZ014-INZ047-
MNZ060-ONZ431-261800-

...Gateway Observations for Savannah International...

CITY           SKY/WX    TMP DP  RH WIND       PRES   REMARKS
Savannah Arpt  MOSUNNY   81  50  33 W8        30.03F
Atlanta        MOSUNNY   78  57  48 W14       30.06S
Charlotte      MOSUNNY   76  55  48 SW7       29.99S
Dallas DFW     MOSUNNY   91  72  53 SW22G30   29.76S HX  98
Houston Bush   PTSUNNY   87  71  58 S10       29.91F HX  93
Wash National  PTSUNNY   75  59  57 W20G29    29.76F
Wash Dulles    PTSUNNY   72  54  53 W18G33    29.78S
Baltimore      PTSUNNY   69  57  65 W24G30    29.73S
Philadelphia   MOSUNNY   74  55  51 W13G25    29.66S
Newark         PTSUNNY   74  55  51 W20       29.59R
Laguardia      PTSUNNY   74  54  49 W18G24    29.57F
J F K          PTSUNNY   72  58  61 W16       29.59F
Boston         CLOUDY    57  51  80 NW12      29.53R
Pittsburg      CLOUDY    62  57  83 W17       29.84R
Akron          LGT RAIN  58  54  86 NW13      29.88R FOG
Cleveland      CLOUDY    63  52  67 NW13      29.89R
Cincinnati     MOSUNNY   74  56  53 W9        29.93F
Columbus       CLOUDY    70  55  57 W16       29.91R
Detroit        CLOUDY    65  53  65 W10       29.86S
Chicago O`Hare CLOUDY    68  54  60 E14       29.81F
Minneapolis    PTSUNNY   70  55  59 S12       29.74S
Indianapolis   PTSUNNY   72  57  59 S8        29.85F
Toronto Canada PTSUNNY   64  54  68 NW3       29.72R

$$




USA.gov is the U.S. government's official web portal to all federal, state and local government web resources and services.